Regional Weather Roundup
Issued by NWS Albany, NY

Home | Current Version | Previous Version | Graphics & Text | Print | Product List | Glossary Off
Versions: 1 2 3 4 5 6 7 8 9 10 11 12 13 14 15 16 17 18 19 20 21 22 23 24 25 26 27

000
ASUS41 KALY 230010
RWRALY

NEW YORK STATE HOURLY WEATHER ROUNDUP
NATIONAL WEATHER SERVICE ALBANY NY
800 PM EDT FRI JUL 22 2016

NOTE: "FAIR" INDICATES FEW OR NO CLOUDS BELOW 12,000 FEET WITH NO
SIGNIFICANT WEATHER AND/OR NO OBSTRUCTIONS TO VISIBILITY.

NYZ032-033-038>043-046>054-057>066-NYZ062>081-082-084-230100-
EAST


CITY           SKY/WX    TMP DP  RH WIND       PRES   REMARKS
ALBANY         PTCLDY    86  68  54 NW8       29.75F
GLENS FALLS    CLEAR     86  63  45 W9        29.73R
POUGHKEEPSIE   PTCLDY    90  71  53 NW6       29.75R HX  96
NEWBURGH       PTCLDY    90  68  48 W7        29.79S HX  93
MONTGOMERY     PTCLDY    88  67  49 SW7       29.77S HX  91
WHITE PLAINS   PTCLDY    89  67  47 W7        29.79S HX  92
ISLIP          PTCLDY    80  72  76 SW13G22   29.80F
NEW YORK CITY  PTCLDY    92  71  50 SW18      29.77S HX  98
CENTRAL PARK   PTCLDY    89  71  55 VRB7      29.81S HX  95
$$

NYZ005>009-017-018-044>046-055-056-230100-
CENTRAL


CITY           SKY/WX    TMP DP  RH WIND       PRES   REMARKS
FULTON         CLEAR     86  61  42 W7        29.79S
SYRACUSE       PTCLDY    86  58  38 W8        29.78F
ROME           CLEAR     83  64  52 W9        29.79S
ELMIRA         CLEAR     87  60  40 NW6G17    29.85R
BINGHAMTON     CLEAR     85  59  41 NW10      29.88R
MONTICELLO     CLOUDY    82  66  57 W3        29.87R
$$

NYZ026>034-041>043-087-230100-
NORTH


CITY           SKY/WX    TMP DP  RH WIND       PRES   REMARKS
WATERTOWN      CLEAR     80  65  59 SW10      29.75R
FORT DRUM      NOT AVBL
MASSENA        PTCLDY    82  64  54 NW17G25   29.70R
SARANAC LAKE   PTCLDY    75  67  76 W5        29.79R
PLATTSBURGH    CLEAR     84  68  58 CALM      29.68S
$$

NYZ001>004-010>016-019>021-085-230100-
WEST


CITY           SKY/WX    TMP DP  RH WIND       PRES   REMARKS
NIAGARA FALLS  CLEAR     90  55  30 NW18      29.84R
BUFFALO        CLEAR     79  72  79 SW15G24   29.86S
DUNKIRK        CLEAR     81  70  69 SW14      29.91R
JAMESTOWN      CLEAR     81  64  57 W7        29.97S
WELLSVILLE     CLEAR     81  59  47 W12       29.98S
ROCHESTER      CLEAR     86  69  56 W16       29.82R HX  90
PENN YAN       CLEAR     86  66  51 W16G23    29.85S
$$

             KEY
       WCI = WIND CHILL INDEX
       VSB = VISIBILITY
       HX  = HEAT INDEX
$$




USA.gov is the U.S. government's official web portal to all federal, state and local government web resources and services.